Location: Laura�t
(43.9341°N, 0.2497°E)
Time: 00:27:44
(UTC+00:00)

Cosmos 2366 rocket - Pass Details

Date: 03 March 2021
Orbit: 954 x 998 km, 82.9° (Epoch: 17 April)

Event Time Altitude Azimuth Distance (km) Brightness Sun altitude
Rises 20:04:40 0° 192° (SSW) 3,677 7.0 -24.8°
Reaches altitude 10° 20:07:10 10° 194° (SSW) 2,738 6.3 -25.2°
Maximum altitude 20:13:28 73° 279° (W) 1,038 4.2 -26.3°
Drops below altitude 10° 20:19:50 10° 5° (N) 2,775 6.5 -27.4°
Sets 20:22:24 0° 7° (N) 3,729 7.2 -27.8°
